Home > Weather > Zoetermeer > Past weeks

Flag for Netherlands Past Weather in Zoetermeer, Netherlands — Yesterday and Last 2 Weeks

Now
52 °F

Fog.


Feels Like: 51 °F
Forecast: 54 / 65 °F
Wind: 5 mph from Northeast

Location: Rotterdam Zestienhoven Airport

Current Time: May 27, 2016 at 6:40:27 AM

Latest Report: May 27, 2016 at 5:55 AM


Visibility: 2 mi

Pressure: 29.98 "Hg

Humidity: 94%

Dew Point: 50 °F

Location of ZoetermeerLocation

Past Weather in Zoetermeer — Graph

°F

Zoetermeer Temperature Yesterday

Maximum temperature yesterday: 66 °F (at 3:55 PM)
Minimum temperature yesterday: 41 °F (at 5:55 AM)
Average temperature yesterday: 55 °F

High & Low Weather Summary for the Past Weeks

 TemperatureHumidityPressure
High77 °F (May 12, 2:55 PM)100% (May 20, 10:25 AM)30.15 "Hg (May 20, 10:25 AM)
Low41 °F (May 16, 12:25 AM)36% (May 12, 2:25 PM)29.50 "Hg (May 12, 12:55 PM)
Average55 °F77%29.91 "Hg
* Reported May 12 5:25 AM — May 27 5:25 AM, Zoetermeer, Weather by CustomWeather, © 2016

Note: Actual official high and low records may vary slightly from our data, if they occured in-between our weather recording intervals... More about our weather records

Advertising

Zoetermeer Weather History for the Previous 24 Hours

Scroll right to see more
 ConditionsComfort  
Time TempWeatherWind HumidityBarometerVisibility
5:25 AM
Fri, May 27
52 °FFog.5 mph100%29.98 "Hg1 mi
4:55 AM54 °FFog.3 mph94%29.98 "Hg2 mi
4:25 AM52 °FFog.5 mph100%29.98 "Hg2 mi
3:55 AM52 °FFog.3 mph100%30.01 "Hg2 mi
3:25 AM54 °FFog.5 mph94%29.98 "Hg2 mi
2:55 AM54 °FFog.5 mph94%29.98 "Hg2 mi
2:25 AM52 °FFog.5 mph100%29.98 "Hg2 mi
1:55 AM52 °FFog.3 mph94%30.01 "Hg3 mi
1:25 AM52 °FClear.2 mph94%30.01 "Hg4 mi
12:55 AM52 °FClear.2 mph94%30.01 "Hg4 mi
12:25 AM52 °FClear.3 mph94%30.01 "Hg5 mi
11:55 PM
Thu, May 26
50 °FClear.5 mph94%30.01 "HgN/A
11:25 PM50 °FPassing clouds.3 mph94%30.01 "HgN/A
10:55 PM54 °FCool.5 mph82%30.01 "HgN/A
10:25 PM54 °FCool.5 mph82%30.01 "HgN/A
9:55 PM54 °FCool.5 mph82%30.01 "HgN/A
9:25 PM55 °FCool.6 mph77%30.01 "HgN/A
8:55 PM57 °FClear.8 mph72%30.01 "HgN/A
8:25 PM59 °FCool.7 mph72%30.01 "HgN/A
7:55 PM61 °FClear.10 mph68%30.01 "HgN/A
7:25 PM61 °FClear.12 mph68%30.01 "HgN/A
6:55 PM63 °FClear.12 mph64%30.01 "HgN/A
6:25 PM63 °FClear.9 mph64%30.01 "HgN/A
5:55 PM63 °FClear.10 mph64%30.01 "HgN/A
5:25 PM64 °FPassing clouds.9 mph68%30.01 "HgN/A
4:55 PM64 °FScattered clouds.9 mph64%30.01 "HgN/A
4:25 PM66 °FBroken clouds.8 mph60%30.01 "HgN/A
3:55 PM66 °FBroken clouds.7 mph60%30.01 "HgN/A
3:25 PM64 °FBroken clouds.7 mph64%30.01 "HgN/A
2:55 PM64 °FClear.2 mph56%30.01 "HgN/A
2:25 PM63 °FOvercast.2 mph64%30.04 "HgN/A
1:55 PM64 °FMostly cloudy.3 mph64%30.04 "HgN/A
1:25 PM63 °FMore clouds than sun.2 mph68%30.04 "Hg6 mi
12:55 PM63 °FBroken clouds.5 mph68%30.04 "Hg5 mi
12:25 PM61 °FPassing clouds.5 mph72%30.04 "Hg5 mi
11:55 AM59 °FScattered clouds.5 mph77%30.04 "Hg4 mi
11:25 AM59 °FPartly sunny.3 mph77%30.04 "Hg4 mi
10:55 AM59 °FPassing clouds.3 mph77%30.04 "Hg4 mi
10:25 AM57 °FScattered clouds.3 mph82%30.04 "Hg5 mi
9:55 AM55 °FMostly cloudy.2 mph82%30.04 "Hg4 mi
9:25 AM54 °FLow clouds.3 mph88%30.04 "Hg4 mi
8:55 AM54 °FMore clouds than sun.6 mph88%30.04 "Hg6 mi
8:25 AM52 °FOvercast.5 mph94%30.04 "HgN/A
7:55 AM50 °FOvercast.1 mph100%30.04 "Hg6 mi
7:25 AM48 °FOvercast.1 mph100%30.04 "Hg5 mi
6:55 AM45 °FOvercast.1 mph100%30.01 "Hg4 mi
6:25 AM43 °FFog.1 mph100%30.01 "Hg1 mi
Weather by CustomWeather, © 2016

See weather overviewHow to use our weather pages